| time (UTC) | temp F | wind direction | speed MPH | gust MPH | rain 1hr in | rain 24hr in | rain mn in | humidity % | barometer mb |
| 20260504081514 | 44 | 146 | 0.0 | 1.0 | 0.00 | 0.00 | 0.00 | 62 | 1010.9 |
| 20260504044526 | 41 | 9 | 0.0 | 0.0 | 0.00 | 0.00 | 0.00 | 73 | 1011.0 |
| 20260504043017 | 42 | 9 | 0.0 | 0.0 | 0.00 | 0.00 | 0.00 | 70 | 1011.0 |
| 20260504041522 | 44 | 9 | 0.0 | 0.0 | 0.00 | 0.00 | 0.00 | 67 | 1011.1 |
| 20260504040039 | 45 | 9 | 0.0 | 0.0 | 0.00 | 0.00 | 0.00 | 65 | 1011.0 |
| 20260504034525 | 45 | 9 | 0.0 | 0.0 | 0.00 | 0.00 | 0.00 | 67 | 1011.1 |
| 20260504033026 | 46 | 9 | 0.0 | 0.0 | 0.00 | 0.00 | 0.00 | 66 | 1011.1 |
| 20260504031523 | 47 | 9 | 0.0 | 0.0 | 0.00 | 0.00 | 0.00 | 60 | 1011.1 |
| 20260504030025 | 46 | 9 | 0.0 | 1.0 | 0.00 | 0.00 | 0.00 | 64 | 1011.2 |
| 20260504024526 | 47 | 9 | 0.0 | 0.0 | 0.00 | 0.00 | 0.00 | 66 | 1011.2 |
| 20260504023030 | 48 | 35 | 0.0 | 0.0 | 0.00 | 0.00 | 0.00 | 58 | 1011.3 |
| 20260504021528 | 48 | 35 | 0.0 | 0.0 | 0.00 | 0.00 | 0.00 | 57 | 1011.4 |
| 20260504020026 | 48 | 35 | 0.0 | 0.0 | 0.00 | 0.00 | 0.00 | 58 | 1011.4 |
| 20260504014527 | 48 | 5 | 0.0 | 0.0 | 0.00 | 0.00 | 0.00 | 55 | 1011.3 |
| 20260504013009 | 49 | 5 | 0.0 | 1.0 | 0.00 | 0.00 | 0.00 | 51 | 1011.1 |
| 20260504011513 | 49 | 341 | 0.0 | 1.0 | 0.00 | 0.00 | 0.00 | 49 | 1011.2 |
| 20260504010020 | 50 | 24 | 0.0 | 2.0 | 0.00 | 0.00 | 0.00 | 48 | 1011.1 |
| 20260504004533 | 51 | 269 | 0.0 | 2.0 | 0.00 | 0.00 | 0.00 | 47 | 1011.0 |
| 20260504003026 | 52 | 275 | 0.0 | 4.0 | 0.00 | 0.00 | 0.00 | 45 | 1010.8 |
| 20260504001514 | 51 | 247 | 0.0 | 2.0 | 0.00 | 0.00 | 0.00 | 47 | 1010.6 |
| 20260504000015 | 51 | 240 | 0.0 | 1.0 | 0.00 | 0.00 | 0.00 | 47 | 1010.4 |
| 20260503234523 | 51 | 242 | 0.0 | 3.0 | 0.00 | 0.00 | 0.00 | 46 | 1010.3 |
| 20260503233023 | 52 | 234 | 0.0 | 2.0 | 0.00 | 0.00 | 0.00 | 46 | 1010.2 |
| 20260503231526 | 51 | 170 | 0.0 | 0.0 | 0.00 | 0.00 | 0.00 | 48 | 1010.2 |
| 20260503230016 | 52 | 221 | 0.0 | 1.0 | 0.00 | 0.00 | 0.00 | 47 | 1010.2 |
| 20260503224517 | 52 | 235 | 0.0 | 3.0 | 0.00 | 0.00 | 0.00 | 46 | 1010.3 |
| 20260503223026 | 52 | 250 | 0.0 | 3.0 | 0.00 | 0.00 | 0.00 | 46 | 1010.4 |
| 20260503221510 | 52 | 267 | 1.0 | 5.0 | 0.00 | 0.00 | 0.00 | 44 | 1010.3 |
| 20260503220013 | 53 | 310 | 1.0 | 5.0 | 0.00 | 0.00 | 0.00 | 44 | 1010.5 |
| 20260503214518 | 51 | 298 | 0.0 | 3.0 | 0.00 | 0.00 | 0.00 | 47 | 1010.6 |
| 20260503213021 | 51 | 252 | 1.0 | 3.0 | 0.00 | 0.00 | 0.00 | 48 | 1010.7 |
| 20260503211523 | 52 | 55 | 1.0 | 9.0 | 0.00 | 0.00 | 0.00 | 46 | 1010.6 |
| 20260503210008 | 51 | 46 | 2.0 | 10.0 | 0.00 | 0.00 | 0.00 | 49 | 1010.7 |
| 20260503204520 | 52 | 241 | 3.0 | 10.0 | 0.00 | 0.00 | 0.00 | 45 | 1010.6 |
| 20260503203020 | 52 | 219 | 3.0 | 9.0 | 0.00 | 0.00 | 0.00 | 43 | 1010.5 |
| 20260503201521 | 53 | 294 | 1.0 | 10.0 | 0.00 | 0.00 | 0.00 | 45 | 1010.4 |
| 20260503200027 | 53 | 268 | 3.0 | 10.0 | 0.00 | 0.00 | 0.00 | 40 | 1010.5 |
| 20260503194510 | 53 | 13 | 2.0 | 8.0 | 0.00 | 0.00 | 0.00 | 40 | 1010.7 |
| 20260503193035 | 53 | 247 | 1.0 | 8.0 | 0.00 | 0.00 | 0.00 | 38 | 1010.8 |
| 20260503191522 | 54 | 338 | 1.0 | 7.0 | 0.00 | 0.00 | 0.00 | 41 | 1010.9 |
| 20260503190023 | 53 | 273 | 1.0 | 9.0 | 0.00 | 0.00 | 0.00 | 39 | 1011.1 |
| 20260503184527 | 53 | 29 | 2.0 | 9.0 | 0.00 | 0.00 | 0.00 | 38 | 1011.1 |
| 20260503183013 | 52 | 333 | 4.0 | 13.0 | 0.00 | 0.00 | 0.00 | 37 | 1011.5 |
| 20260503181518 | 52 | 309 | 2.0 | 9.0 | 0.00 | 0.00 | 0.00 | 41 | 1011.5 |
| 20260503180026 | 53 | 334 | 3.0 | 14.0 | 0.00 | 0.00 | 0.00 | 42 | 1011.6 |
| 20260503174531 | 51 | 276 | 6.0 | 16.0 | 0.00 | 0.00 | 0.00 | 40 | 1012.0 |
| 20260503173027 | 51 | 5 | 4.0 | 12.0 | 0.00 | 0.00 | 0.00 | 42 | 1012.3 |
| 20260503171522 | 49 | 36 | 2.0 | 10.0 | 0.00 | 0.00 | 0.00 | 41 | 1012.2 |